{"data":{"norad_id":67338,"epoch":"2026-09-19T06:04:55.056864Z","epoch_age_seconds":183058,"freshness":"STALE","line1":"1 67338U 26003E   26262.25341501  .00010833  00000+0  40253-3 0  9998","line2":"2 67338  43.0015 214.2156 0001261 284.7550  75.3162 15.27585406 38428","mean_motion":15.27585406,"eccentricity":0.0001261,"inclination_deg":43.0015,"raan_deg":214.2156,"arg_perigee_deg":284.755,"mean_anomaly_deg":75.3162,"bstar":0.00040253,"rev_number":3842,"period_min":94.266415111326,"perigee_km":482.16771505312,"apogee_km":483.89810210406,"semimajor_km":6861.1699085786,"source":"CELESTRAK","updated_at":"2026-09-20T09:00:43.511304Z"}}